AddedLatest Added eBooks:

  1. 2021-06-11The Story of Late Night S01E06 Reinventing Late Night TV 720p HEVC x265
  2. 2021-06-11Pinkfong Baby Sharks Space Adventure 2019 WEBRip x264-ION10
  3. 2021-06-11Lost Souls 2000 WEBRip XviD MP3-XVID
  4. 2021-06-11Double Blind by Edward St Aubyn
  5. 2021-06-11Naples '44 by Norman Lewis
  6. 2021-06-11The Art of Reading People by Ian Tuhovsky
  7. 2021-06-11Taiwan A Light in the East A Personal and Analytical Taiwan Study
  8. 2021-06-11Assouad Dimension and Fractal Geometry
  9. 2021-06-11Guardians of Public Value How Public Organisations Become and Remain Institutions
  10. 2021-06-11The Stylist 2020 BRRip XviD MP3-XVID
  11. 2021-06-113D PRINTABLE COSTUME - DO3D - IRON MAN - SUIT - MK39 - GEMINI
  12. 2021-06-11Precarity and International Relations
  13. 2021-06-11Orchid arrangement 7
  14. 2021-06-11MUELSFELL HALFBLOOD ANASHIA HD FOR GENESIS 8 FEMALE
  15. 2021-06-11The Murder Tapes S05E06 The Move Out 720p HEVC x265
  16. 2021-06-11PETERBILT 379 TRACTOR TRUCK 1987 3D MODEL
  17. 2021-06-11Property Brothers Forever Home S05E08 Heart of the Family 1080p HEVC x265
  18. 2021-06-11Innovations Management Capabilities to Address the Capability Rigidity Paradox A Longitudinal Case Study within the German
  19. 2021-06-11VA Driving with Chopin (2021)
  20. 2021-06-11PC Welt Plus Juli 2021
  21. 2021-06-11Ashburn Waters (2019) 720p BluRay [YTS]
  22. 2021-06-11Digital Photo Germany Juli 2021
  23. 2021-06-11Chill House: Electro Sound Pack #294 (2021)
  24. 2021-06-11Trigger Point (2021) 720p BluRay [YTS]
  25. 2021-06-11Forbes España junio 2021
  26. 2021-06-11Mother & Baby India June 2021
  27. 2021-06-11Ashburn Waters 2019 BRRip XviD MP3-XVID
  28. 2021-06-11Manifest S03E12E13 720p HEVC x265-MeGusta
  29. 2021-06-11Art Absolument N°96 2021
  30. 2021-06-11Summertime S01E03 720p HEVC x265
  31. 2021-06-11Kim Simmonds Out Of The Blue (2021) Mp3 320kbps
  32. 2021-06-11Jimmy Kimmel 2021 06 04 DJ Khaled 720p HEVC x265
  33. 2021-06-11Celebrity Gogglebox S03E01 1080p HEVC x265
  34. 2021-06-11Beats Of City: Top 100 Progressive House (2021)
  35. 2021-06-11Naruto Shippuden S13E08 DUBBED 720p HEVC x265
  36. 2021-06-11Way DOwn 2021 1080p BluRay x264 DTS-MT
  37. 2021-06-11Cruel Summer S01E09 720p HEVC x265
  38. 2021-06-11Headhunter Magic Eye
  39. 2021-06-11Various Artists Ultra Body Workout Platinum Hits 2021 Fitness Compilation 128 Bpm 32 Count (2021)
  40. 2021-06-11Liseys Story S01E02 1080p HEVC x265
  41. 2021-06-11Doctor Doctor AU S05E06 1080p HEVC x265
  42. 2021-06-11Ashburn Waters 2019 1080p BluRay H264 AAC-RARBG
  43. 2021-06-11Kids Say the Darndest Things 2019 S02E09 1080p HEVC x265
  44. 2021-06-11The Price Is Right S49E131 1080p HEVC x265
  45. 2021-06-11Unsellable Houses S02E10 Rough Rental Reno 1080p HEVC x265
  46. 2021-06-11Soccer Mom Madam 2021 720p WEB h264-BAE
  47. 2021-06-11BapHomet 2021 720p WEBRip x264-GalaxyRG
  48. 2021-06-11The Chase US S02E01 720p HEVC x265
  49. 2021-06-11Emergency Call US S01E06 1080p HEVC x265
  50. 2021-06-11Troubled Waters 2006 1080p WEBRip x265-RARBG
  51. 2021-06-11Housebroken S01E02 720p HEVC x265
  52. 2021-06-11BapHomet 2021 1080p ITUN WEB-DL AAC2 0 H264-CMRG
  53. 2021-06-11The 11th Hour with Brian Williams 2021 05 27 1080p WEBRip x265 HEVC LM
  54. 2021-06-11Midsomer Murders S13E01 720p HEVC x265
  55. 2021-06-11Feel Good S02E01 1080p HEVC x265
  56. 2021-06-11Gully 2021 720p WEBRip x264-GalaxyRG - Removed
  57. 2021-06-11Clipped 2021 S01E04 Tee Rific Topiaries 1080p HEVC x265
  58. 2021-06-11MathWorks MATLAB R2021a v9.10.0.1684407 (x64)
  59. 2021-06-11MasterChef Australia S13E33 1080p HEVC x265
  60. 2021-06-11RuPauls Drag Race Down Under S01E06 720p HEVC x265
  61. 2021-06-11Trigger Point 2021 720p BluRay x264 DTS-MT
  62. 2021-06-11Time S01E01 720p HEVC x265
  63. 2021-06-11Everythings Gonna Be Okay S02E10 720p HEVC x265
  64. 2021-06-11Gully 2019 1080p WEBRip DD5 1 x264-CM
  65. 2021-06-11Deadliest Catch Bloodline S02E08 Cornelia Marie in Hawaii 720p HEVC x265
  66. 2021-06-11Rebel 2021 S01E08 1080p HEVC x265
  67. 2021-06-11Midsomer Murders S07E03 720p HEVC x265
  68. 2021-06-11Trigger Point 2021 720p BRRip XviD AC3-XVID
  69. 2021-06-11Gully 2019 WEBRip x264-ION10
  70. 2021-06-11The Legacy of Black Wall Street S01E01 720p HEVC x265
  71. 2021-06-11Mama June From Not to Hot S05E11 1080p HEVC x265
  72. 2021-06-11Terror Eyes 2021 WEB-DL XviD MP3-XVID
  73. 2021-06-11Emergency Call US S01E06 720p HEVC x265
  74. 2021-06-11Future Fear 2021 1080p AMZN WEB-DL DDP2 0 H264-EVO
  75. 2021-06-11Midsomer Murders S13E07 1080p HEVC x265-MeGusta
  76. 2021-06-11Mock The Week S20E04 1080p HEVC x265
  77. 2021-06-11Midsomer Murders S01E05 720p HEVC x265
  78. 2021-06-11United Shades of America S05E06 The Color of America 720p HEVC x265
  79. 2021-06-11Rebel 2021 S01E09 720p HEVC x265-MeGusta
  80. 2021-06-11Celebrity Family Feud 2015 S06E06 720p HEVC x265
  81. 2021-06-11Timeline 2003 1080p BluRay x264 DTS-FGT
  82. 2021-06-11Deadliest Catch S17E09 Dedication 720p HEVC x265
  83. 2021-06-11RKPrime - Cheryl Blossom - Banging Herself In The Bathroom
  84. 2021-06-11Pootie Tang (2001) 720p BluRay [YTS]
  85. 2021-06-11Pootie Tang 2001 BRRip XviD MP3-XVID
  86. 2021-06-11Timeline 2003 PROPER BRRip XviD MP3-XVID
  87. 2021-06-11Technocom Android Bulk SMS Sender v10.21.3.25
  88. 2021-06-11Stellanomicon Future Fear 2021 1080p AMZN WEBRip DDP2 0 x264-NOGRP
  89. 2021-06-11Stellanomicon Future Fear 2021 WEBRip x264-ION10
  90. 2021-06-11IObit Driver Booster Pro v8.5.0.496 Multilingual
  91. 2021-06-11Midsomer Murders S07E02 1080p HEVC x265-MeGusta
  92. 2021-06-11NCH PhotoPad Image Editor Professional v7.44 Beta
  93. 2021-06-11In Fury Born by David Weber
  94. 2021-06-11Screenpresso Pro v1.9.10 Multilingual
  95. 2021-06-11Sanaaq An Inuit Novel by Mitiarjuk Nappaaluk
  96. 2021-06-11The Best Joke Book - Hundreds of the Funniest, Silliest, Most Ridiculous Jokes Ever
  97. 2021-06-11KakaSoft PDF Converter v2.0.0.7
  98. 2021-06-11The Bullet by Iris Johansen
  99. 2021-06-11Sonible smartEQ3 v1.0.0

More eBooks ...

48034 pages, 4803309 eBooks in total, list all pages->

Search free ebooks in ebookee.com!
Back to Top